| time (UTC) | temp C | wind direction | speed KPH | gust KPH | rain 1hr cm | rain 24hr cm | rain mn cm | humidity % | barometer mb |
| 20260505041005 | 7 | 289 | 0.0 | 4.8 | 0.00 | 0.00 | 0.00 | 88 | 1009.7 |
| 20260505040010 | 7 | 304 | 0.0 | 9.7 | 0.00 | 0.00 | 0.00 | 88 | 1009.6 |
| 20260505035006 | 7 | 295 | 0.0 | 4.8 | 0.00 | 0.00 | 0.00 | 88 | 1009.6 |
| 20260505034006 | 7 | 294 | 0.0 | 11.3 | 0.00 | 0.00 | 0.00 | 87 | 1009.7 |
| 20260505033009 | 7 | 297 | 0.0 | 16.1 | 0.00 | 0.00 | 0.00 | 87 | 1009.6 |
| 20260505032007 | 7 | 296 | 0.0 | 11.3 | 0.00 | 0.00 | 0.00 | 87 | 1009.6 |
| 20260505031006 | 7 | 300 | 0.0 | 16.1 | 0.00 | 0.00 | 0.00 | 87 | 1009.5 |
| 20260505030008 | 7 | 299 | 0.0 | 8.0 | 0.00 | 0.00 | 0.00 | 87 | 1009.5 |
| 20260505025006 | 7 | 318 | 4.8 | 12.9 | 0.00 | 0.00 | 0.00 | 87 | 1009.5 |
| 20260505024006 | 7 | 318 | 4.8 | 16.1 | 0.00 | 0.00 | 0.00 | 87 | 1009.5 |
| 20260505023008 | 7 | 307 | 8.0 | 16.1 | 0.00 | 0.00 | 0.00 | 87 | 1009.6 |
| 20260505022006 | 7 | 331 | 6.4 | 16.1 | 0.00 | 0.00 | 0.00 | 87 | 1009.7 |
| 20260505021005 | 7 | 315 | 4.8 | 12.9 | 0.00 | 0.00 | 0.00 | 87 | 1009.8 |
| 20260505020009 | 7 | 309 | 3.2 | 19.3 | 0.00 | 0.00 | 0.00 | 87 | 1009.8 |
| 20260505015006 | 7 | 307 | 0.0 | 16.1 | 0.00 | 0.00 | 0.00 | 87 | 1009.9 |
| 20260505014005 | 7 | 317 | 6.4 | 20.9 | 0.00 | 0.03 | 0.00 | 86 | 1009.9 |
| 20260505013008 | 7 | 322 | 11.3 | 20.9 | 0.00 | 0.03 | 0.00 | 87 | 1009.9 |
| 20260505012006 | 7 | 319 | 9.7 | 19.3 | 0.00 | 0.03 | 0.00 | 87 | 1009.9 |
| 20260505011006 | 7 | 311 | 4.8 | 19.3 | 0.00 | 0.03 | 0.00 | 87 | 1009.9 |
| 20260505010009 | 7 | 312 | 4.8 | 19.3 | 0.00 | 0.03 | 0.00 | 86 | 1009.9 |
| 20260505005006 | 7 | 314 | 12.9 | 20.9 | 0.00 | 0.03 | 0.00 | 87 | 1009.9 |
| 20260505004006 | 7 | 299 | 3.2 | 19.3 | 0.00 | 0.05 | 0.00 | 87 | 1010.0 |
| 20260505003008 | 7 | 303 | 1.6 | 12.9 | 0.00 | 0.05 | 0.00 | 88 | 1010.1 |
| 20260505002006 | 7 | 313 | 3.2 | 19.3 | 0.00 | 0.05 | 0.00 | 88 | 1010.2 |
| 20260505001006 | 7 | 320 | 6.4 | 16.1 | 0.00 | 0.05 | 0.00 | 88 | 1010.2 |
| 20260505000008 | 7 | 339 | 1.6 | 14.5 | 0.00 | 0.05 | 0.00 | 87 | 1010.2 |
| 20260504235006 | 7 | 329 | 1.6 | 14.5 | 0.00 | 0.05 | 0.00 | 87 | 1010.2 |
| 20260504234005 | 7 | 327 | 3.2 | 12.9 | 0.00 | 0.05 | 0.00 | 87 | 1010.2 |
| 20260504233008 | 7 | 325 | 4.8 | 16.1 | 0.00 | 0.05 | 0.00 | 87 | 1010.1 |
| 20260504232006 | 7 | 338 | 6.4 | 16.1 | 0.00 | 0.05 | 0.00 | 87 | 1010.0 |
| 20260504231006 | 7 | 327 | 4.8 | 12.9 | 0.00 | 0.05 | 0.00 | 87 | 1010.1 |
| 20260504230007 | 7 | 325 | 1.6 | 14.5 | 0.00 | 0.05 | 0.00 | 88 | 1010.2 |
| 20260504225005 | 7 | 334 | 1.6 | 16.1 | 0.00 | 0.08 | 0.00 | 88 | 1010.2 |
| 20260504224006 | 7 | 338 | 3.2 | 14.5 | 0.00 | 0.08 | 0.00 | 88 | 1010.3 |
| 20260504223008 | 7 | 344 | 3.2 | 16.1 | 0.00 | 0.10 | 0.00 | 87 | 1010.3 |
| 20260504222006 | 7 | 323 | 3.2 | 11.3 | 0.00 | 0.13 | 0.00 | 87 | 1010.3 |
| 20260504221006 | 7 | 315 | 3.2 | 9.7 | 0.00 | 0.13 | 0.00 | 87 | 1010.3 |
| 20260504220008 | 8 | 322 | 0.0 | 8.0 | 0.00 | 0.15 | 0.00 | 87 | 1010.4 |
| 20260504215005 | 8 | 333 | 1.6 | 9.7 | 0.00 | 0.15 | 0.15 | 87 | 1010.4 |
| 20260504214006 | 8 | 336 | 1.6 | 11.3 | 0.00 | 0.15 | 0.15 | 87 | 1010.4 |
| 20260504213008 | 8 | 333 | 0.0 | 8.0 | 0.00 | 0.18 | 0.15 | 86 | 1010.4 |
| 20260504212006 | 8 | 327 | 1.6 | 8.0 | 0.00 | 0.23 | 0.15 | 86 | 1010.4 |
| 20260504211006 | 8 | 341 | 1.6 | 4.8 | 0.00 | 0.25 | 0.15 | 85 | 1010.4 |
| 20260504210008 | 8 | 342 | 0.0 | 4.8 | 0.00 | 0.30 | 0.15 | 85 | 1010.3 |
| 20260504205006 | 8 | 353 | 0.0 | 0.0 | 0.00 | 0.33 | 0.15 | 84 | 1010.3 |
| 20260504204005 | 9 | 353 | 0.0 | 1.6 | 0.00 | 0.33 | 0.15 | 84 | 1010.3 |
| 20260504203008 | 9 | 0 | 0.0 | 1.6 | 0.00 | 0.33 | 0.15 | 83 | 1010.2 |
| 20260504202006 | 9 | 359 | 0.0 | 3.2 | 0.00 | 0.36 | 0.15 | 82 | 1010.0 |
| 20260504201005 | 9 | 334 | 1.6 | 8.0 | 0.00 | 0.41 | 0.15 | 81 | 1010.0 |
| 20260504200008 | 9 | 272 | 0.0 | 0.0 | 0.00 | 0.43 | 0.15 | 80 | 1010.0 |
| 20260504195005 | 10 | 249 | 0.0 | 0.0 | 0.00 | 0.53 | 0.15 | 78 | 1009.9 |
| 20260504194006 | 10 | 256 | 0.0 | 0.0 | 0.00 | 0.64 | 0.15 | 76 | 1009.9 |
| 20260504193009 | 10 | 255 | 0.0 | 0.0 | 0.00 | 0.64 | 0.15 | 75 | 1009.8 |
| 20260504192006 | 10 | 227 | 0.0 | 0.0 | 0.00 | 0.64 | 0.15 | 74 | 1009.8 |
| 20260504191005 | 11 | 254 | 0.0 | 0.0 | 0.00 | 0.64 | 0.15 | 73 | 1009.8 |
| 20260504190018 | 11 | 220 | 0.0 | 1.6 | 0.00 | 0.64 | 0.15 | 71 | 1009.8 |
| 20260504185005 | 11 | 228 | 0.0 | 3.2 | 0.00 | 0.64 | 0.15 | 70 | 1009.8 |
| 20260504184005 | 11 | 218 | 0.0 | 1.6 | 0.00 | 0.64 | 0.15 | 70 | 1009.8 |
| 20260504183008 | 11 | 222 | 0.0 | 0.0 | 0.00 | 0.64 | 0.15 | 71 | 1009.7 |
| 20260504182005 | 11 | 234 | 0.0 | 0.0 | 0.00 | 0.64 | 0.15 | 72 | 1009.7 |
| 20260504181006 | 12 | 292 | 0.0 | 3.2 | 0.00 | 0.64 | 0.15 | 72 | 1009.7 |
| 20260504180008 | 12 | 240 | 0.0 | 0.0 | 0.00 | 0.64 | 0.15 | 70 | 1009.7 |
| 20260504175005 | 12 | 261 | 0.0 | 4.8 | 0.00 | 0.64 | 0.15 | 69 | 1009.6 |
| 20260504174005 | 12 | 256 | 0.0 | 4.8 | 0.00 | 0.64 | 0.15 | 68 | 1009.5 |
| 20260504173008 | 12 | 277 | 0.0 | 1.6 | 0.00 | 0.64 | 0.15 | 68 | 1009.7 |
| 20260504172005 | 12 | 298 | 0.0 | 1.6 | 0.00 | 0.64 | 0.15 | 67 | 1009.7 |
| 20260504171005 | 13 | 289 | 0.0 | 1.6 | 0.00 | 0.64 | 0.15 | 68 | 1009.6 |
| 20260504151006 | 13 | 288 | 0.0 | 11.3 | 0.00 | 0.64 | 0.15 | 65 | 1009.8 |
| 20260504141006 | 14 | 291 | 0.0 | 4.8 | 0.00 | 0.64 | 0.15 | 65 | 1009.9 |
| 20260504082005 | 10 | 232 | 0.0 | 3.2 | 0.00 | 0.64 | 0.15 | 93 | 1007.8 |
| 20260504081005 | 10 | 287 | 0.0 | 1.6 | 0.00 | 0.64 | 0.15 | 93 | 1007.7 |
| 20260504050008 | 10 | 305 | 11.3 | 19.3 | 0.00 | 0.64 | 0.15 | 93 | 1004.9 |
| 20260504045005 | 11 | 313 | 11.3 | 20.9 | 0.00 | 0.64 | 0.15 | 93 | 1004.8 |
| 20260504044006 | 11 | 313 | 8.0 | 20.9 | 0.00 | 0.64 | 0.15 | 93 | 1004.6 |
| 20260504043008 | 11 | 311 | 14.5 | 20.9 | 0.00 | 0.64 | 0.15 | 93 | 1004.6 |